Location: ??????
(42.0089°N, 44.3281°E)
Time: 18:40:42
(UTC+00:00)

NOAA 16 DEB - Visible Passes

Search period start: 11 August 2022 00:00
Search period end: 21 August 2022 00:00
Orbit: 719 x 830 km, 98.9° (Epoch: 10 August)

Date Brightness Start Highest point End Pass type
(mag) Time Alt. Az. Time Alt. Az. Time Alt. Az.
11 Aug ? 01:23:08 10° SSW 01:27:25 25° W 01:31:39 10° NW visible
11 Aug ? 23:10:47 10° ESE 23:14:35 21° ENE 23:18:17 10° NNE visible
12 Aug ? 00:48:15 10° S 00:53:20 52° W 00:58:20 10° NNW visible
12 Aug ? 22:40:11 10° ENE 22:41:05 10° ENE 22:42:00 10° NE visible
13 Aug ? 00:14:11 10° SSE 00:19:24 77° ENE 00:24:29 10° N visible
13 Aug ? 23:40:51 10° SE 23:45:36 37° ENE 23:50:14 10° N visible
14 Aug ? 01:20:24 10° SSW 01:24:46 27° W 01:29:04 10° NW visible
14 Aug ? 23:08:22 10° ESE 23:11:57 19° ENE 23:15:28 10° NNE visible
15 Aug ? 00:45:35 10° S 00:50:41 56° WSW 00:55:40 10° NNW visible
16 Aug ? 00:11:35 10° SSE 00:16:44 72° ENE 00:21:45 10° N visible
16 Aug ? 23:38:18 10° SE 23:42:55 35° ENE 23:47:26 10° N visible
17 Aug ? 01:17:37 10° SSW 01:22:03 28° W 01:26:24 10° NW visible
17 Aug ? 23:05:54 10° ESE 23:09:16 18° ENE 23:12:34 10° NNE visible
18 Aug ? 00:42:52 10° S 00:47:57 60° WSW 00:52:55 10° NNW visible
19 Aug ? 00:08:55 10° SSE 00:13:59 66° ENE 00:18:57 10° N visible
19 Aug ? 23:35:41 10° SE 23:40:10 32° ENE 23:44:34 10° N visible
20 Aug ? 01:14:47 10° SSW 01:19:16 30° W 01:23:40 10° NW visible
20 Aug ? 23:03:24 10° E 23:06:31 17° ENE 23:09:35 10° NNE visible
